Погода в Херсоне

Погода в Херсоне : погода сейчас, прогноз погоды и архив. Всё, что Вы хотите узнать о погоде в Херсоне!

Хотите узнать прогноз погоды в Херсоне? Тогда Вам сюда: Погода в Херсоне

Поиск расширенной информации на нашем сайте:

Другие новости

Новости СМИ2

Главная страница сайта

Новости сайта

03.07.2017

Напоминаем, что на нашем специализированном сайте Метеоцентр.Азия вы можете получить высокодетализированные автоматические прогнозы погоды по пунктам России, СНГ и мира в авиационном формате (включающие направление и скорость ветра, видимость, явления погоды, количество и форму облачности, нижнюю и верхнюю границу облачности).

Рекомендуем: Какие банки выдают кредиты в Херсоне.

Погода в Херсоне - сегодня

Время (UTC), дата Ветер
(°,м/с) 
Видим.   Явления Облачность Т
(°С)
Тd
(°С)
f(%) Тe
(°С)
Pmin
(гПа)
dP
(гПа)
Po
(мм)
O2
(г/м3)
Тmin Tmax R s Состояние
почвы
06 22.11.17 290 (З) 4000 м  дымка  9/9 600 м 
[Sc]
+0.2 -0.4 96 +1  1016.2  757  305  -0.1         
09 22.11.17 270 (З) 10 км    9/9 600 м 
[Sc]
+1.4 -1.5 81 +2  1016.2  757  304           
12 22.11.17 290 (З) 10 км    9/9 600 м 
[Cu Sc]
+3.3 -5.8 51 +1  1015.4  -0.7  757  302           
15 22.11.17 260 (З) 10 км    10/10 600 м 
[Sc]
+1.7 -2.1 76 +2  1016.2  0.7  757  303           
18 22.11.17 310 (СЗ) 10 км    3/3 2000 м средняя 
[Ac trans]
+0.9 -1.7 83 1017.2  758  305    +3.9       
21 22.11.17 320 (СЗ) 4000 м  дымка  ясно 
-0.4 -1.9 90 -1  1018.1  0.9  758  306           
00 23.11.17 330 (СЗ) 4000 м  дымка  ясно 
-1.7 -2.3 96 -3  1019.1  0.9  759  308           
03 23.11.17 330 (СЗ) 2000 м  дымка  ясно 
-2.7 -3 98 -2  1020.2  1.1  760  310           
06 23.11.17 320 (СЗ) 2000 м  дымка  3/3 600 м 
[Sc diur, vesp]
-3.1 -3.8 95 -4  1022  1.8  761  311  -3.2         
09 23.11.17 320 (СЗ) 4000 м  дымка  ясно 
+1.4 -0.9 85 +1  1022.5  0.6  762  305           
12 23.11.17 320 (СЗ) 20000 м    8/8 600 м кучево-дожд. 
[Cb calv]
+2.6 -3.7 63 +1  1022.3  -0.2  762  304           
15 23.11.17 010 (С) 10 км    9/8 600 м кучево-дожд., средняя 
[Cb calv|Ac cuf]
+0.5 -3.2 76 +1  1023.4  1.1  762  307           
18 23.11.17 310 (СЗ) 10 км    ясно 
-0.3 -4.8 72 1023.9  0.4  763  308    +2.8       
21 23.11.17 310 (СЗ) 10 км    4/4 2000 м средняя 
[Ac lent]
+0 -4.8 70 +1  1023.7  -0.1  763  308           
00 24.11.17 270 (З) 4000 м  дымка  3/0 средняя 
[Ac und]
-2.6 -4.3 88 -2  1023.9  0.1  763  311           
03 24.11.17 280 (З) 4000 м  дымка  ясно 
-3.6 -4.6 93 -3  1023.9  763  312           
06 24.11.17 300 (СЗ) 2000 м  дымка  8/0 средняя 
[Ac trans]
-2.8 -3.4 96 -2  1024.8  0.9  763  311  -3.8         
09 24.11.17 300 (СЗ) 10 км    3/3 600 м 
[Sc]
+1.1 -2.5 77 -1  1024.3  -0.4  763  307           
12 24.11.17 020 (С) 10 км    6/3 600 м средняя 
[Sc|Ac trans]
+2.5 -2.5 70 +1  1025.7  1.4  764  305           
15 24.11.17 060 (СВ) 10 км    3/3 600 м 
[Sc]
-0.7 -3.5 81 -2  1026.7  0.9  765  309           
18 24.11.17 360 (С) 10 км    3/3 600 м 
[Sc]
-2.3 -4.5 85 -2  1028  1.3  766  312    +2.8       
21 24.11.17 090 (В) 4000 м  дымка  3/3 600 м 
[Sc]
-2.9 -3.9 93 -2  1029  0.9  767  313           
00 25.11.17 120 (ЮВ) 4000 м  дымка  3/3 600 м 
[Sc]
-3.7 -4.5 94 -3  1029  767  314           
03 25.11.17 120 (ЮВ) 1000 м  дымка  3/3 600 м 
[Sc]
-4.2 -4.4 99 -5  1028.2  -0.8  766  314           
06 25.11.17 130 (ЮВ) 2000 м  дымка  3/3 600 м 
[Sc]
-3.8 -4.6 94 -5  1028.1  -0.1  766  313  -4.7         
Время (UTC), дата Ветер
(°,м/с) 
Видим.   Явления Облачность Т
(°С)
Тd
(°С)
f(%) Тe
(°С)
Pmin
(гПа)
dP
(гПа)
Po
(мм)
O2
(г/м3)
Тmin Tmax R s Состояние
почвы

Для получения пояснительной информации подведите курсор к названию столбца.

ПОГОДА в Херсоне - архив

Всё, что Вы хотите узнать о погоде в Херсоне - удобно и подробно!

Выберите нужную дату (начиная с 1 января 2015* года) и нажмите кнопку "Найти".
Будут отображены архивные сводки погоды по пункту Херсон, начиная с указанной даты.


Отображать данные в формате CSV (для использования в таблицах Excel)


Внимание! Наш архив погоды предназначен исключительно для личного некоммерческого использования в познавательных целях. Если Вам необходимы официальные справки о состоянии погоды (для производственных, юридических, коммерческих и т.п. целей), обращайтесь в органы Росгидромета.

*Примечание: данная дата относится к архиву по метеостанциям СССР (Россия, СНГ, Балтия).
Архив по метеостанциям Зарубежной Европы и Азии (кроме Китая) хранится 10 дней, по другим регионам земного шара (Китай, Африка, Америка, Австралия, Океания) - 1 день.

Херсон - район местоположения метеостанции


Название, широта, долгота, высота метеостанции:
Херсон 46.6°ш. 32.6°д. 54 м над ур. моря [Украина]

Дополнительная информация

В oтличие oт бoльшинства пoгoдных сайтoв мы публикуем пoдрoбную метеoинфoрмацию в детальнoм прoфессиoнальнoм фoрмате.

Характеристики температуры и влажнoсти вoздуха измеряются на высoте 2 м в тени вдали oт зданий и деревьев.
Скoрoсть ветра измеряется на высoте 10 м (на урoвне рoста челoвека скoрoсть ветра ниже в 1.5-2 раза). Если метеoстанция нахoдится в гoрoде или в лесу, тo скoрoсть ветра занижена на 2-4 м/с пo сравнению с oткрытым местoм. Скoрoсть ветра над акватoриями крупных рек и oзёр, а также на вершинах хoлмoв на 2-5 м/с выше, чем в oбычных услoвиях.
Атмoсфернoе давление в разных тoчках местнoсти мoжет значительнo oтличаться oт давления на метеoстанции, в зависимoсти oт услoвий рельефа (при пoдъёме на 10 м давление пoнижается примернo на 1 мм рт.ст.).